CW0621 Weather Reports


Display with metric or nautical units.
time (UTC)temp
F
wind
direction
speed
MPH
gust
MPH
rain 1hr
in
rain 24hr
in
rain mn
in
humidity
%
barometer
mb
20260906111557 58 42 0.0 4.0 0.00 0.00 0.00 96 1017.3
20260906110007 57 42 0.0 2.0 0.00 0.00 0.00 96 1017.2
20260906104534 56 44 0.0 1.0 0.00 0.00 0.00 96 1017.2
20260906103100 56 44 0.0 0.0 0.00 0.00 0.00 95 1017.0
20260906101524 57 44 0.0 0.0 0.00 0.00 0.00 95 1016.8
20260906100057 58 44 0.0 2.0 0.00 0.00 0.00 95 1016.7
20260906094526 58 13 0.0 0.0 0.00 0.00 0.00 95 1016.8
20260906093049 58 19 0.0 2.0 0.00 0.00 0.00 96 1016.9
20260906091520 59 12 0.0 3.0 0.00 0.00 0.00 96 1016.8
20260906090041 58 53 0.0 1.0 0.00 0.00 0.00 96 1016.8
20260906084506 58 300 0.0 0.0 0.00 0.00 0.00 96 1016.8
20260906083033 58 300 0.0 0.0 0.00 0.00 0.00 96 1016.6
20260906081603 58 300 0.0 0.0 0.00 0.00 0.00 95 1016.5
20260906080021 59 300 0.0 0.0 0.00 0.00 0.00 95 1016.5
20260906074551 59 300 0.0 0.0 0.00 0.00 0.00 95 1016.5
20260906073010 59 300 0.0 0.0 0.00 0.00 0.00 94 1016.7
20260906071536 60 300 0.0 0.0 0.00 0.00 0.00 94 1016.5
20260906064525 61 300 0.0 0.0 0.00 0.00 0.00 93 1016.4
20260906063054 61 300 0.0 0.0 0.00 0.00 0.00 91 1016.3
20260906061519 62 300 0.0 0.0 0.00 0.00 0.00 90 1016.5
20260906060047 63 300 0.0 1.0 0.00 0.00 0.00 90 1016.5
20260906054509 64 301 0.0 0.0 0.00 0.00 0.00 91 1016.2
20260906053038 64 293 0.0 1.0 0.00 0.00 0.00 92 1016.0
20260906051502 65 303 0.0 1.0 0.00 0.00 0.00 93 1016.1
20260906050030 65 3 0.0 0.0 0.00 0.00 0.00 95 1015.8
20260906044607 66 8 0.0 0.0 0.00 0.00 0.00 96 1015.8
20260906043021 66 7 0.0 0.0 0.00 0.00 0.00 96 1015.7
20260906041551 66 8 0.0 0.0 0.00 0.00 0.00 96 1015.7
20260906040023 66 8 0.0 0.0 0.00 0.00 0.00 95 1015.4
20260906034541 67 8 0.0 0.0 0.00 0.00 0.00 95 1015.5
20260906033018 67 8 0.0 0.0 0.00 0.00 0.00 95 1015.2
20260906031533 67 8 0.0 0.0 0.00 0.00 0.00 95 1015.2
20260906030104 67 8 0.0 0.0 0.00 0.00 0.00 95 1015.1
20260906024525 67 8 0.0 0.0 0.00 0.00 0.00 95 1015.3
20260906023101 67 8 0.0 0.0 0.00 0.00 0.00 95 1015.2
20260906021517 67 8 0.0 0.0 0.00 0.00 0.00 94 1015.1
20260906020045 68 8 0.0 0.0 0.00 0.00 0.00 94 1014.8
20260906014509 68 8 0.0 0.0 0.00 0.00 0.00 93 1014.6
20260906013035 68 8 0.0 0.0 0.00 0.00 0.00 93 1014.6
20260906011603 69 8 0.0 0.0 0.00 0.00 0.00 93 1014.5
20260906010029 69 347 0.0 0.0 0.00 0.00 0.00 93 1014.3
20260906004556 69 288 0.0 1.0 0.00 0.00 0.00 92 1014.1
20260906003021 69 306 0.0 0.0 0.00 0.00 0.00 92 1014.1
20260906001551 69 13 0.0 0.0 0.00 0.00 0.00 91 1014.1
20260906000014 70 265 0.0 3.0 0.00 0.00 0.00 91 1014.1
20260905234539 70 20 1.0 5.0 0.00 0.00 0.00 90 1014.1
20260905233006 70 23 0.0 3.0 0.00 0.00 0.00 89 1014.1
20260905231536 70 25 0.0 2.0 0.00 0.00 0.00 88 1013.9
20260905230106 70 31 0.0 1.0 0.00 0.00 0.00 88 1013.9
20260905224602 70 26 0.0 5.0 0.00 0.00 0.00 88 1013.8
20260905223106 71 36 0.0 5.0 0.00 0.00 0.00 89 1013.6
20260905221521 72 17 0.0 3.0 0.00 0.00 0.00 89 1013.3
20260905220047 72 278 0.0 5.0 0.00 0.00 0.00 89 1013.2
20260905214515 73 312 0.0 2.0 0.00 0.00 0.00 88 1013.0
20260905213044 74 49 0.0 1.0 0.00 0.00 0.00 88 1012.8
20260905211528 74 26 0.0 1.0 0.00 0.00 0.00 88 1012.9
20260905210047 75 23 0.0 1.0 0.00 0.00 0.00 85 1012.9
20260905204504 76 16 0.0 2.0 0.00 0.00 0.00 85 1012.9
20260905203027 76 20 0.0 0.0 0.00 0.00 0.00 84 1012.9
20260905201557 76 10 0.0 0.0 0.00 0.00 0.00 85 1013.1
20260905200026 77 306 0.0 0.0 0.00 0.01 0.00 83 1013.1
20260905194552 76 304 0.0 1.0 0.00 0.01 0.00 82 1013.0
20260905193019 76 25 0.0 0.0 0.00 0.01 0.00 84 1013.1
20260905191546 76 10 0.0 0.0 0.00 0.01 0.00 85 1013.2
20260905190013 76 28 0.0 0.0 0.00 0.01 0.00 84 1013.2
20260905184553 76 41 0.0 0.0 0.00 0.01 0.00 83 1013.2
20260905183007 76 44 0.0 0.0 0.00 0.01 0.00 84 1013.3
20260905181537 76 43 0.0 2.0 0.00 0.01 0.00 84 1013.4
20260905180006 76 23 0.0 0.0 0.00 0.01 0.00 85 1013.3
20260905174536 76 15 0.0 0.0 0.00 0.01 0.00 86 1013.4
20260905173123 75 37 0.0 0.0 0.00 0.01 0.00 86 1013.4
20260905171523 75 236 0.0 0.0 0.00 0.01 0.00 88 1013.6
20260905170105 75 41 0.0 0.0 0.00 0.01 0.00 90 1013.8
20260905164524 74 335 0.0 0.0 0.00 0.01 0.00 94 1013.7
20260905163036 73 41 0.0 2.0 0.00 0.01 0.00 96 1013.7
20260905161505 71 28 0.0 4.0 0.00 0.01 0.00 96 1013.7
20260905160030 70 34 0.0 6.0 0.00 0.01 0.00 96 1014.0
20260905154610 70 36 1.0 4.0 0.00 0.01 0.00 96 1013.7
20260905153025 70 39 0.0 3.0 0.00 0.01 0.00 96 1013.8
20260905151558 70 27 1.0 5.0 0.00 0.01 0.00 96 1013.6
20260905150026 69 29 0.0 3.0 0.00 0.01 0.00 96 1013.6
20260905144555 69 240 0.0 0.0 0.00 0.01 0.00 96 1013.7
20260905143021 69 239 0.0 0.0 0.00 0.01 0.00 96 1013.4
20260905141547 69 353 0.0 1.0 0.00 0.01 0.00 96 1013.3
20260905140012 68 353 0.0 0.0 0.00 0.01 0.00 96 1013.2
20260905134538 68 353 0.0 0.0 0.00 0.01 0.00 96 1013.2
20260905133006 67 353 0.0 1.0 0.00 0.01 0.00 96 1013.3
20260905131536 66 27 0.0 3.0 0.00 0.01 0.00 96 1013.2
20260905130001 67 32 0.0 1.0 0.00 0.01 0.00 96 1013.3
20260905124530 66 32 0.0 1.0 0.00 0.01 0.00 96 1013.1
20260905123105 66 254 0.0 0.0 0.00 0.01 0.00 96 1013.0
20260905121517 66 15 0.0 1.0 0.00 0.01 0.00 96 1012.8
20260905120043 65 19 1.0 4.0 0.00 0.01 0.00 97 1012.7
20260905114509 65 310 0.0 0.0 0.00 0.01 0.00 97 1012.2
20260905113036 64 310 0.0 0.0 0.00 0.01 0.00 97 1012.1